Palmer, AK

8:01 AM AKDT on April 19, 2018 (GMT -0800)
Palmer Municipal

Weather History for PAAQ - September, 2012

Change the Weather History Date:

Monday, September 17, 2012

  Actual Average Record
Temperature  
Mean Temperature 48 °F -  
Max Temperature 55 °F 56 °F 63 °F (1957)
Min Temperature 42 °F 38 °F 21 °F (1955)
Degree Days  
Heating Degree Days 18    
Moisture  
Dew Point 39 °F    
Average Humidity 70    
Maximum Humidity 89    
Minimum Humidity 48    
Precipitation  
Precipitation 0.00 in - - ()
Sea Level Pressure  
Sea Level Pressure 29.85 in    
Wind  
Wind Speed 10 mph (WSW)    
Max Wind Speed 20 mph    
Max Gust Speed 31 mph    
Visibility 9 miles    
Events Rain    
Averages and records for this station are not official NWS values.
T = Trace of Precipitation, MM = Missing Value Source: NWS Daily Summary

Daily Weather History Graph

Daily Weather History Graph

Search for Another Location

Airport or City:

Astronomy

Sep. 17, 2012 Rise Set
Actual Time 7:29 AM AKDT 8:10 PM AKDT
Civil Twilight 6:45 AM AKDT 8:54 PM AKDT
Nautical Twilight 5:50 AM AKDT 9:48 PM AKDT
Astronomical Twilight 4:48 AM AKDT 10:49 PM AKDT
Moon 10:24 AM AKDT (9/17) 7:57 PM AKDT (9/17)
Length of Visible Light 14h 09m
Length of Day
12h 40m
Waxing Crescent, 4% of the Moon is Illuminated
Sep 17
Waxing Crescent
Sep 22
First Quarter
Sep 29
Full
Oct 7
Last Quarter
Oct 15
New

Hourly Weather History & Observations

Time (AKDT) Temp. Windchill Dew Point Humidity Pressure Visibility Wind Dir Wind Speed Gust Speed Precip Events Conditions
12:53 AM 52.0 °F - 37.0 °F 57% 29.59 in 9.0 mi SE 17.3 mph 26.5 mph N/A   Overcast
1:53 AM 51.1 °F - 37.0 °F 59% 29.64 in 10.0 mi SSE 19.6 mph 31.1 mph N/A   Overcast
2:53 AM 50.0 °F - 37.9 °F 63% 29.68 in 9.0 mi South 15.0 mph 20.7 mph 0.00 in   Overcast
3:53 AM 48.9 °F - 39.9 °F 71% 29.71 in 9.0 mi West 6.9 mph - N/A   Overcast
4:53 AM 46.9 °F - 42.1 °F 83% 29.74 in 9.0 mi West 16.1 mph 24.2 mph 0.00 in Rain Light Rain
5:53 AM 46.0 °F 40.2 °F 43.0 °F 89% 29.77 in 10.0 mi West 12.7 mph - 0.00 in Rain Light Rain
6:53 AM 46.0 °F - 42.1 °F 86% 29.79 in 9.0 mi Calm Calm - 0.00 in   Overcast
7:53 AM 46.0 °F 43.9 °F 42.1 °F 86% 29.81 in 10.0 mi SW 4.6 mph - N/A   Overcast
8:53 AM 46.0 °F 40.2 °F 42.1 °F 86% 29.83 in 10.0 mi West 12.7 mph 20.7 mph 0.00 in   Overcast
9:53 AM 46.9 °F - 41.0 °F 80% 29.86 in 10.0 mi West 6.9 mph - N/A   Overcast
10:53 AM 48.0 °F - 39.0 °F 71% 29.88 in 10.0 mi WNW 8.1 mph 18.4 mph N/A   Overcast
11:53 AM 48.0 °F - 37.9 °F 68% 29.90 in 10.0 mi West 8.1 mph - N/A   Overcast
12:53 PM 50.0 °F - 37.9 °F 63% 29.92 in 7.0 mi NW 3.5 mph - N/A   Overcast
1:53 PM 52.0 °F - 37.9 °F 59% 29.91 in 10.0 mi Variable 4.6 mph - N/A   Overcast
2:53 PM 53.1 °F - 37.0 °F 55% 29.91 in 10.0 mi WSW 5.8 mph - N/A   Mostly Cloudy
3:53 PM 53.1 °F - 37.0 °F 55% 29.92 in 10.0 mi SW 8.1 mph - N/A   Mostly Cloudy
4:53 PM 52.0 °F - 37.9 °F 59% 29.92 in 10.0 mi West 6.9 mph - N/A   Mostly Cloudy
5:53 PM 52.0 °F - 39.0 °F 61% 29.92 in 10.0 mi SW 3.5 mph - N/A   Mostly Cloudy
6:53 PM 50.0 °F - 39.0 °F 66% 29.93 in 9.0 mi Calm Calm - N/A   Partly Cloudy
7:53 PM 46.0 °F - 39.0 °F 76% 29.94 in 7.0 mi Calm Calm - N/A   Clear
8:53 PM 42.1 °F - 37.9 °F 85% 29.94 in 8.0 mi Calm Calm - N/A   Clear
9:53 PM 45.0 °F 43.5 °F 36.0 °F 71% 29.94 in 7.0 mi Variable 3.5 mph - N/A   Clear
10:53 PM 45.0 °F 42.6 °F 37.9 °F 76% 29.94 in 7.0 mi NNW 4.6 mph - N/A   Clear
11:53 PM 51.1 °F - 32.0 °F 48% 29.94 in 7.0 mi SE 17.3 mph 27.6 mph N/A   Overcast